sat.trackr.live / text

‹ back to catalog

STARLINK-1704

NORAD 47625 · 2021-012F

PAYLOAD ACTIVE UNKNOWN

§ Identity

Operator
Country
US
Launch date
2021-02-16
Launch site
AFETR
Launch vehicle
Mass (kg)
RCS (m²)

Purposes: comms

External: N2YO · Heavens-Above · Gunter

§ Orbital elements

Epoch: 2026-09-16T00:00:02.000160Z

Period
90.85 min
Inclination
53.0361°
Eccentricity
0.0007161
Mean motion
15.85073727 rev/d
Perigee alt
311.3 km
Apogee alt
320.9 km
Semi-major
6,694.3 km
B*
7.5253e-4
RAAN
212.5118°
Arg perigee
92.3062°
Mean anomaly
236.7232°
Rev number
601

§ Raw data

STARLINK-17041 47625U 21012F   26259.00002315  .00184449  00000+0  75253-3 0  99992 47625  53.0361 212.5118 0007161  92.3062 236.7232 15.85073727  6018

JSON: /api/v1/satellites/47625 · /tle

For live sub-satellite position, see the globe view (requires WebGL).

§ Visibility from observer

Set your observer location to see the next 7 days of passes ≥ 10°. The values pass through the URL so the page stays shareable.

No JS? Fill the form by hand. The geolocation button needs JavaScript.